DELTA 1 DEB

Satellite information

Favourite Embed

Satellite Type and Status

DEBRISIN ORBIT

Key statistics

Satellite DELTA 1 DEB at a glance.

Uptime

18814

Days in orbit

Revolutions

≈ 12.8

Per day

Orbit

SSO

Sun Synchronous Orbit

Inclination

102.2

Latest

Satellite identification and parameters

Extended collection of information and parameters for DELTA 1 DEB.

Object identification

Identified? True

Debris? True

Object name: DELTA 1 DEB

International designator: 1973-086ER

Object number (NORAD): 7180

Object ID (CCSDS): 7180

Country: UNITED STATES OF AMERICA (US)

Current information (Y/N): Y

RCS size: SMALL

Orbital parameters

Period: 112.579 minutes

Inclination: 102.2394 deg

SMA: 7723.217 km

Apoapsis: 1461.824 km

Periapsis: 1228.34 km

RAAN: 198.5335 deg

Eccentricy: 0.0151157

Argument of periapsis: 220.0749 deg

Mean anomaly: 261.2417 deg

Mean motion: 12.79102659 rev/day

Mean motion (dot): 0.00000387 rev/day2

B* drag term: 0.0018608 1/REarth

Two-line elements (TLE)

Creation date: May 11, 2025, 2:40 a.m.

Reference frame: TEME

Reference center: EARTH

Epoch: May 10, 2025, 6:26 p.m. UTC

TLE line 0: 0 DELTA 1 DEB

TLE line 1: 1 07180U 73086ER 25130.76832913 .00000387 00000-0 18608-2 0 9993

TLE line 2: 2 07180 102.2394 198.5335 0151157 220.0749 261.2417 12.79102659389237

Live tracking on map

Real-time ground track for satellite DELTA 1 DEB.

In-orbit conjunctions

A list of the most updated potential collisions computed for object DELTA 1 DEB.

Target Orbit TCA Probability of collision Miss distance Type
COSMOS 2246 LEO 2025-02-19 05:40:12 0.0001424063 212.0 (m) PAYLOAD

Associated space launch

Meteorological satellite using radiometric imaging

DELTA 1 DEB was lifted into orbit during the mission ‘Delta 0300 | NOAA 3’, on board a Delta 0300 space rocket.

The launch took place on Nov. 6, 1973, 5:02 p.m. from Space Launch Complex 2W.

For more information about the launch, click the button.

Launch to space Delta 0300 | NOAA 3
Delta 0300 | NOAA 3

Agency: N/A

Status: Launch Successful

Launch date: Nov. 6, 1973, 5:02 p.m. UTC

Rocket: Delta 0300

Launch pad: Space Launch Complex 2W

Location: Vandenberg SFB, CA, USA

...

Latest news about this satellite

There are no fresh news available about this satellite. Check back as we update our databases every day.


Newsletter sign-up

Weekly statistics, charts and insights to help you stay on top of the space industry.